Regional Weather Roundup
Issued by NWS

Home | Current Version | Previous Version | Text Only | Print | Product List | Glossary Off
Versions: 1 2 3 4 5 6 7 8 9 10 11 12 13 14 15 16 17 18 19 20 21 22 23 24 25 26 27 28 29 30 31 32 33 34 35 36 37 38 39 40 41 42 43 44 45 46 47 48 49 50

000
ASUS44 KMEG 281410
RWRTN
TENNESSEE HOURLY STATE WEATHER ROUNDUP
NATIONAL WEATHER SERVICE MEMPHIS TN
900 AM CDT FRI JUL 28 2017

TNZ002-004-019-021-049-052-054-088>092-281500-
WEST TENNESSEE

CITY           SKY/WX    TMP DP  RH WIND       PRES   REMARKS
MEMPHIS INTL   CLOUDY    79  75  87 W14       29.90R
NWS MEMPHIS      N/A     81 N/A N/A MISG        N/A
JACKSON        CLOUDY    81  78  91 W9        29.87R
SOMERVILLE       N/A     79  77  94 CALM      29.88R
COVINGTON      PTSUNNY   81  77  89 W8        29.87R
UNION CITY     PTSUNNY   81  77  89 NW6       29.85S
BOLIVAR        CLOUDY    79  77  94 SW6       29.88R
PARIS          CLOUDY    77  75  94 VRB3      29.85S FOG
HUNTINGDON     CLOUDY    79  77  94 W6        29.86R
LEXINGTON      CLOUDY    79  77  94 CALM      29.86F
SAVANNAH       CLOUDY    79  77  94 SW7       29.87S
$$

TNZ008-025-027-028-033-062-065-066-281500-
NORTH MIDDLE TENNESSEE

CITY           SKY/WX    TMP DP  RH WIND       PRES   REMARKS
NASHVILLE      LGT RAIN  77  74  90 SW5       29.87S
PORTLAND       CLOUDY    77  75  94 S5        29.86S
CLARKSVILLE    CLOUDY    77  73  87 SW7       29.85S
SMYRNA         CLOUDY    77  74  90 SW6       29.88S
COOKEVILLE     CLOUDY    75  73  94 SW9       29.89S
GALLATIN       CLOUDY    77  75  94 CALM      29.89S
CROSSVILLE     CLOUDY    73  70  90 VRB6      29.94S
$$

TNZ061-075-076-078-094-096-097-281500-
SOUTH MIDDLE TENNESSEE

CITY           SKY/WX    TMP DP  RH WIND       PRES   REMARKS
FAYETTEVILLE   CLOUDY    73  72  94 SW12G21   29.92R FOG
TULLAHOMA      CLOUDY    72  70  94 SW6       29.92S
WINCHESTER     CLOUDY    72  72 100 SW12      29.91F VSB 1
MCMINNVILLE    PTSUNNY   73  73 100 SW6       29.90S
COLUMBIA       PTSUNNY   77  77 100 SW7       29.86S
SHELBYVILLE    PTSUNNY   73  73 100 SW7       29.89S FOG
$$

TNZ017-018-042-046-047-281500-
NORTHEAST TENNESSEE

CITY           SKY/WX    TMP DP  RH WIND       PRES   REMARKS
TRI CITIES     LGT RAIN  73  72  96 CALM      29.92S FOG
ELIZABETHTON   CLOUDY    73  72  94 N3        29.92F
$$

TNZ012-013-036-069-073-074-281500-
CENTRAL EAST TENNESSEE

CITY           SKY/WX    TMP DP  RH WIND       PRES   REMARKS
KNOXVILLE      CLOUDY    77  72  84 SW13      29.89S
OAK RIDGE      CLOUDY    77  72  84 VRB5      29.90S
DOWNTOWN KNOXV MOSUNNY   77  75  94 SW6       29.88S
GATLINBURG     PTSUNNY   75  70  83 CALM      29.89S
MORRISTOWN     CLOUDY    77  73  88 W6        29.90R
JACKSBORO      MOSUNNY   77  73  88 CALM      29.92S
$$

TNZ083-085-099-281500-
SOUTHEAST TENNESSEE

CITY           SKY/WX    TMP DP  RH WIND       PRES   REMARKS
CHATTANOOGA    RAIN      77  73  87 S6        29.92R FOG
DAYTON         CLOUDY    77  73  88 VRB6      29.89S
$$

SKY/WX REPORTED AS FAIR MEANS FEW OR NO CLOUDS BELOW
12 THOUSAND FEET.




USA.gov is the U.S. government's official web portal to all federal, state and local government web resources and services.